TimeMST,TemperatureF,Dew PointF,Humidity,Sea Level PressureIn,VisibilityMPH,Wind Direction,Wind SpeedMPH,Gust SpeedMPH,PrecipitationIn,Events,Conditions,WindDirDegrees,DateUTC
12:54 AM,33.1,8.1,35,29.98,10.0,NNW,8.1,18.4,N/A,,Clear,330,2013-01-31 07:54:00
1:54 AM,32.0,9.0,38,29.99,10.0,West,12.7,21.9,N/A,,Partly Cloudy,270,2013-01-31 08:54:00
2:54 AM,28.9,9.0,43,30.00,10.0,SSE,6.9,-,N/A,,Partly Cloudy,160,2013-01-31 09:54:00
3:36 AM,35.6,10.4,35,29.91,10.0,WNW,19.6,28.8,N/A,,Partly Cloudy,290,2013-01-31 10:36:00
3:54 AM,35.1,10.9,37,29.96,10.0,WNW,19.6,32.2,N/A,,Partly Cloudy,300,2013-01-31 10:54:00
4:54 AM,33.1,8.1,35,30.00,10.0,NNW,6.9,-,N/A,,Partly Cloudy,330,2013-01-31 11:54:00
5:54 AM,30.0,10.0,43,30.06,10.0,NNW,8.1,-,N/A,,Partly Cloudy,340,2013-01-31 12:54:00
6:54 AM,30.0,9.0,41,30.09,10.0,NW,10.4,-,N/A,,Partly Cloudy,320,2013-01-31 13:54:00
7:54 AM,34.0,9.0,35,30.09,10.0,North,11.5,-,N/A,,Clear,350,2013-01-31 14:54:00
8:54 AM,36.0,12.0,37,30.13,10.0,North,10.4,-,N/A,,Partly Cloudy,360,2013-01-31 15:54:00
9:43 AM,39.2,14.0,36,30.06,10.0,North,13.8,-,N/A,,Partly Cloudy,10,2013-01-31 16:43:00
9:54 AM,39.9,12.9,33,30.13,10.0,North,11.5,-,N/A,,Partly Cloudy,360,2013-01-31 16:54:00
10:54 AM,42.1,15.1,34,30.12,10.0,NE,9.2,-,N/A,,Partly Cloudy,40,2013-01-31 17:54:00
11:54 AM,42.1,15.1,34,30.10,10.0,NNE,10.4,-,N/A,,Partly Cloudy,30,2013-01-31 18:54:00
12:54 PM,43.0,15.1,32,30.10,10.0,SSE,5.8,-,N/A,,Partly Cloudy,160,2013-01-31 19:54:00
1:54 PM,44.1,16.0,32,30.09,10.0,SSE,10.4,-,N/A,,Partly Cloudy,160,2013-01-31 20:54:00
2:54 PM,44.1,19.0,37,30.11,10.0,SE,13.8,-,N/A,,Partly Cloudy,140,2013-01-31 21:54:00
3:54 PM,42.1,19.0,40,30.10,10.0,SSE,13.8,-,N/A,,Partly Cloudy,160,2013-01-31 22:54:00
4:54 PM,37.9,21.0,51,30.14,10.0,South,10.4,-,N/A,,Partly Cloudy,170,2013-01-31 23:54:00
5:54 PM,34.0,19.0,54,30.20,10.0,SSE,5.8,-,N/A,,Clear,160,2013-02-01 00:54:00
6:54 PM,33.1,18.0,54,30.22,10.0,South,8.1,-,N/A,,Clear,180,2013-02-01 01:54:00
7:54 PM,30.9,18.0,59,30.22,10.0,SE,4.6,-,N/A,,Clear,140,2013-02-01 02:54:00
8:54 PM,30.0,17.1,59,30.23,10.0,ESE,9.2,-,N/A,,Clear,120,2013-02-01 03:54:00
9:54 PM,28.0,18.0,66,30.20,10.0,SSE,5.8,-,N/A,,Clear,150,2013-02-01 04:54:00
10:54 PM,23.0,16.0,74,30.19,10.0,ENE,4.6,-,N/A,,Clear,70,2013-02-01 05:54:00
11:54 PM,21.9,15.1,75,30.21,10.0,NNE,8.1,-,N/A,,Clear,30,2013-02-01 06:54:00